Weather History for Tekamah, NE

Change the Weather History Date:

Friday, September 27, 2013

  Actual Average Record
Temperature  
Mean Temperature 78 °F -  
Max Temperature 90 °F 75 °F 94 °F (1956)
Min Temperature 68 °F 46 °F 32 °F (1984)
Cooling Degree Days 14    
Growing Degree Days 28 (Base 50)    
Moisture  
Dew Point 60 °F    
Average Humidity 59    
Maximum Humidity 81    
Minimum Humidity 34    
Precipitation  
Precipitation 0.00 in - - ()
Sea Level Pressure  
Sea Level Pressure 29.76 in    
Wind  
Wind Speed 13 mph (SSE)    
Max Wind Speed 21 mph    
Max Gust Speed 33 mph    
Visibility 10 miles    
Events Rain , Thunderstorm    
Averages and records for this station are not official NWS values.
T = Trace of Precipitation, MM = Missing Value Source: NWS Daily Summary

Daily Weather History Graph

Daily Weather History Graph

Search for Another Location

Airport:

Trip Planner

Search our weather history database for the weather conditions in past years. The results will help you decide how hot, cold, wet, or windy it might be!

Date:

Astronomy

Sep. 27, 2013 Rise Set
Actual Time 7:17 AM CDT 7:12 PM CDT
Civil Twilight 6:49 AM CDT 7:40 PM CDT
Nautical Twilight 6:17 AM CDT 8:12 PM CDT
Astronomical Twilight 5:44 AM CDT 8:45 PM CDT
Moon 12:09 AM CDT (9/27) 2:56 PM CDT (9/27)
Length of Visible Light 12h 50m
Length of Day
11h 55m
Last Quarter, 45% of the Moon is Illuminated
Sep 27
Last Quarter
Oct 4
New
Oct 11
First Quarter
Oct 18
Full
Oct 26
Last Quarter

Hourly Weather History & Observations

Time (CDT) Temp. Heat Index Dew Point Humidity Pressure Visibility Wind Dir Wind Speed Gust Speed Precip Events Conditions
12:54 AM 72.0 °F - 60.1 °F 66% 29.78 in 10.0 mi SE 9.2 mph - N/A   Clear
1:54 AM 72.0 °F - 60.1 °F 66% 29.78 in 10.0 mi SE 11.5 mph - N/A   Clear
2:54 AM 72.0 °F - 60.1 °F 66% 29.77 in 10.0 mi SE 13.8 mph 20.7 mph N/A   Clear
3:54 AM 71.1 °F - 61.0 °F 70% 29.76 in 10.0 mi SE 12.7 mph - 0.00 in   Clear
4:54 AM 72.0 °F - 60.1 °F 66% 29.75 in 10.0 mi SSE 12.7 mph - N/A   Clear
5:23 AM 71.6 °F - 60.8 °F 69% 29.80 in 10.0 mi South 10.4 mph - 0.00 in Rain , Thunderstorm Light Rain
5:38 AM 71.6 °F - 60.8 °F 69% 29.80 in 10.0 mi SSE 10.4 mph - 0.00 in   Scattered Clouds
5:54 AM 72.0 °F - 61.0 °F 68% 29.76 in 10.0 mi SE 11.5 mph - 0.00 in Rain Light Rain
6:05 AM 71.6 °F - 60.8 °F 69% 29.80 in 10.0 mi SE 10.4 mph 19.6 mph 0.00 in Thunderstorm Thunderstorm
6:15 AM 69.8 °F - 60.8 °F 73% 29.80 in 10.0 mi SE 11.5 mph 20.7 mph 0.00 in Thunderstorm Partly Cloudy
6:36 AM 69.8 °F - 60.8 °F 73% 29.80 in 10.0 mi SSE 10.4 mph - 0.00 in   Mostly Cloudy
6:54 AM 68.0 °F - 62.1 °F 81% 29.77 in 10.0 mi SE 10.4 mph - 0.00 in   Scattered Clouds
7:54 AM 69.1 °F - 61.0 °F 75% 29.78 in 10.0 mi SE 11.5 mph 21.9 mph N/A   Scattered Clouds
8:54 AM 70.0 °F - 62.1 °F 76% 29.78 in 10.0 mi SE 13.8 mph - N/A   Clear
9:54 AM 73.0 °F - 61.0 °F 66% 29.78 in 10.0 mi SE 15.0 mph 23.0 mph N/A   Clear
10:54 AM 77.0 °F - 59.0 °F 54% 29.78 in 10.0 mi South 12.7 mph 20.7 mph N/A   Clear
11:54 AM 84.0 °F 83.8 °F 59.0 °F 43% 29.75 in 10.0 mi SSE 20.7 mph 29.9 mph N/A   Clear
12:54 PM 86.0 °F 85.0 °F 57.9 °F 38% 29.76 in 10.0 mi South 18.4 mph 29.9 mph N/A   Clear
1:54 PM 88.0 °F 87.1 °F 59.0 °F 37% 29.74 in 10.0 mi SSE 20.7 mph 33.4 mph N/A   Clear
2:54 PM 89.1 °F 88.2 °F 59.0 °F 36% 29.73 in 10.0 mi SSE 20.7 mph 33.4 mph N/A   Clear
3:54 PM 88.0 °F 87.1 °F 59.0 °F 37% 29.72 in 10.0 mi SSE 18.4 mph 27.6 mph N/A   Clear
4:54 PM 89.1 °F 87.7 °F 57.0 °F 34% 29.71 in 10.0 mi SSE 19.6 mph 28.8 mph N/A   Clear
5:54 PM 88.0 °F 86.5 °F 55.9 °F 34% 29.71 in 10.0 mi South 18.4 mph 31.1 mph N/A   Clear
6:54 PM 82.9 °F 82.6 °F 57.9 °F 42% 29.72 in 10.0 mi SSE 12.7 mph 19.6 mph N/A   Clear
7:54 PM 79.0 °F - 59.0 °F 50% 29.73 in 10.0 mi SSE 11.5 mph - N/A   Clear
8:54 PM 75.9 °F - 59.0 °F 56% 29.75 in 10.0 mi SE 10.4 mph - N/A   Clear
9:54 PM 73.9 °F - 60.1 °F 62% 29.73 in 10.0 mi SE 12.7 mph - N/A   Clear
10:54 PM 73.9 °F - 60.1 °F 62% 29.71 in 10.0 mi SE 13.8 mph - N/A   Clear
11:54 PM 73.0 °F - 61.0 °F 66% 29.70 in 10.0 mi SE 11.5 mph - N/A   Mostly Cloudy